STARLINK-5390 (54872 NORAD) Tracking and Keplerian Element Data

This shows tracking and keplerian element data for the satellite.

Feedback or suggestion? Click here.




ElementValue
Catalog54872
NameSTARLINK-5390
Epoch Orbit268
Epoch Day14.25001157
Epoch Year2023
RAAN273.4585
Inclination43.0035
Eccentricity0.000236
Argument of Perigee280.0246
Mean Anonmoly138.5027
Mean Motion15.71331996
Decay Rate0.00068257
L11 54872U 22177BE 23014.25001157 .00068257 00000+0 52018-3 0 9992
L22 54872 43.0035 273.4585 0002360 280.0246 138.5027 15.71331996 2687



Live tracking and technical data element details for STARLINK-5390 (NORAD 54872). STARLINK-5390 can be tracked NOW for your location showing map with azimuth and elevation plus other details from your city location.







IsCatalogInMostPopularTable: catalog: 54872, numindb: 3
Update: records affected: 1



GetName: 54872 STARLINK-5390

Hit Count: updated at: Tue, 07 Feb 2023 15:42:59 GMT